When you browse on this site, cookies collect data to enhance your experience and personalize the content and advertising you see.
Visit our Privacy Policy to learn more. By continuing to use the site, you agree to this use of cookies and data.
  • In Schweiz
  • Länderverzeichnis
  • Für 7 Tage
  • Wassertemperatur
  • Wetterkarte
  • Widgets
  • user-avatar
    Anmelden

    Stündliche Wetter Orleans

    Heute, 28 Januar, Dienstag

    Zeit Temperatur Niederschläge Wind Luftdruck Luftfeuchtigkeit
    00:00 +5°C° 0 mm 6 m/S 741 mmHg 90%
    01:00 +5°C° 0.5 mm 7 m/S 741 mmHg 87%
    02:00 +6°C° 0.5 mm 8 m/S 741 mmHg 84%
    03:00 +6°C° 0.5 mm 9 m/S 740 mmHg 81%
    04:00 +5°C° 0.3 mm 8 m/S 741 mmHg 80%
    05:00 +4°C° 0.3 mm 8 m/S 741 mmHg 78%
    06:00 +4°C° 0.3 mm 8 m/S 741 mmHg 77%
    07:00 +4°C° 0 mm 8 m/S 742 mmHg 76%
    08:00 +2°C° 0 mm 8 m/S 743 mmHg 75%
    09:00 +2°C° 0 mm 8 m/S 744 mmHg 74%
    10:00 +4°C° 0.1 mm 8 m/S 744 mmHg 70%
    11:00 +5°C° 0.1 mm 9 m/S 745 mmHg 66%
    12:00 +5°C° 0.1 mm 9 m/S 745 mmHg 61%
    13:00 +5°C° 0.1 mm 9 m/S 745 mmHg 62%
    14:00 +5°C° 0.1 mm 8 m/S 745 mmHg 63%
    15:00 +5°C° 0.1 mm 8 m/S 745 mmHg 63%
    16:00 +5°C° 0.2 mm 8 m/S 745 mmHg 69%
    17:00 +4°C° 0.2 mm 8 m/S 746 mmHg 75%
    18:00 +4°C° 0.2 mm 8 m/S 746 mmHg 82%
    19:00 +4°C° 0 mm 7 m/S 746 mmHg 82%
    20:00 +4°C° 0 mm 7 m/S 747 mmHg 83%
    21:00 +3°C° 0 mm 6 m/S 747 mmHg 84%
    22:00 +3°C° 0.2 mm 6 m/S 747 mmHg 84%
    23:00 +3°C° 0.2 mm 6 m/S 748 mmHg 84%

    Morgen, 29 Januar, Mittwoch

    Zeit Temperatur Niederschläge Wind Luftdruck Luftfeuchtigkeit
    00:00 +5°C° 0.2 mm 5 m/S 748 mmHg 84%
    01:00 +3°C° 0.1 mm 5 m/S 748 mmHg 85%
    02:00 +3°C° 0.1 mm 5 m/S 748 mmHg 86%
    03:00 +4°C° 0.1 mm 4 m/S 749 mmHg 87%
    04:00 +4°C° 0 mm 4 m/S 749 mmHg 89%
    05:00 +3°C° 0 mm 4 m/S 750 mmHg 90%
    06:00 +3°C° 0 mm 4 m/S 750 mmHg 91%
    07:00 +3°C° 0 mm 4 m/S 751 mmHg 90%
    08:00 +4°C° 0 mm 4 m/S 751 mmHg 89%
    09:00 +4°C° 0 mm 4 m/S 752 mmHg 88%
    10:00 +5°C° 0 mm 4 m/S 752 mmHg 82%
    11:00 +6°C° 0 mm 4 m/S 752 mmHg 76%
    12:00 +7°C° 0 mm 5 m/S 752 mmHg 70%
    13:00 +7°C° 0 mm 4 m/S 752 mmHg 70%
    14:00 +7°C° 0 mm 4 m/S 752 mmHg 69%
    15:00 +9°C° 0 mm 3 m/S 752 mmHg 69%
    16:00 +8°C° 0 mm 3 m/S 752 mmHg 74%
    17:00 +7°C° 0 mm 2 m/S 752 mmHg 80%
    18:00 +6°C° 0 mm 2 m/S 752 mmHg 85%
    19:00 +5°C° 0 mm 2 m/S 752 mmHg 87%
    20:00 +5°C° 0 mm 2 m/S 752 mmHg 88%
    21:00 +5°C° 0 mm 2 m/S 752 mmHg 90%
    22:00 +4°C° 0 mm 3 m/S 752 mmHg 91%
    23:00 +4°C° 0 mm 3 m/S 752 mmHg 92%

    übermorgen, 30 Januar, Donnerstag

    Zeit Temperatur Niederschläge Wind Luftdruck Luftfeuchtigkeit
    00:00 +4°C° 0 mm 3 m/S 752 mmHg 93%
    01:00 +4°C° 0 mm 3 m/S 751 mmHg 92%
    02:00 +5°C° 0 mm 3 m/S 750 mmHg 90%
    03:00 +5°C° 0 mm 4 m/S 750 mmHg 88%
    04:00 +6°C° 0 mm 4 m/S 749 mmHg 88%
    05:00 +6°C° 0 mm 4 m/S 748 mmHg 87%
    06:00 +6°C° 0 mm 5 m/S 748 mmHg 87%
    07:00 +7°C° 0.3 mm 5 m/S 747 mmHg 90%
    08:00 +7°C° 0.3 mm 5 m/S 747 mmHg 92%
    09:00 +8°C° 0.3 mm 5 m/S 747 mmHg 95%
    10:00 +9°C° 0.9 mm 5 m/S 747 mmHg 95%
    11:00 +10°C° 0.9 mm 6 m/S 747 mmHg 95%
    12:00 +11°C° 0.9 mm 6 m/S 746 mmHg 95%
    13:00 +11°C° 0.7 mm 6 m/S 746 mmHg 95%
    14:00 +11°C° 0.7 mm 6 m/S 746 mmHg 94%
    15:00 +11°C° 0.7 mm 6 m/S 746 mmHg 94%
    16:00 +11°C° 0.2 mm 6 m/S 746 mmHg 93%
    17:00 +11°C° 0.2 mm 6 m/S 747 mmHg 93%
    18:00 +11°C° 0.2 mm 6 m/S 747 mmHg 92%
    19:00 +12°C° 0.2 mm 5 m/S 747 mmHg 93%
    20:00 +12°C° 0.2 mm 5 m/S 748 mmHg 93%
    21:00 +12°C° 0.2 mm 5 m/S 748 mmHg 94%
    22:00 +12°C° 0 mm 4 m/S 749 mmHg 94%
    23:00 +12°C° 0 mm 4 m/S 749 mmHg 94%

    31 Januar, Freitag

    Zeit Temperatur Niederschläge Wind Luftdruck Luftfeuchtigkeit
    00:00 +11°C° 0 mm 4 m/S 750 mmHg 94%
    01:00 +11°C° 0 mm 3 m/S 750 mmHg 94%
    02:00 +10°C° 0 mm 3 m/S 750 mmHg 95%
    03:00 +10°C° 0 mm 3 m/S 750 mmHg 95%
    04:00 +10°C° 0 mm 3 m/S 750 mmHg 95%
    05:00 +10°C° 0 mm 3 m/S 750 mmHg 96%
    06:00 +9°C° 0 mm 3 m/S 750 mmHg 96%
    07:00 +10°C° 0 mm 3 m/S 750 mmHg 96%
    08:00 +11°C° 0 mm 3 m/S 750 mmHg 96%
    09:00 +11°C° 0 mm 4 m/S 751 mmHg 96%
    10:00 +12°C° 0 mm 4 m/S 751 mmHg 94%
    11:00 +12°C° 0 mm 5 m/S 750 mmHg 91%
    12:00 +13°C° 0 mm 5 m/S 750 mmHg 88%
    13:00 +13°C° 0.1 mm 5 m/S 750 mmHg 88%
    14:00 +13°C° 0.1 mm 5 m/S 750 mmHg 88%
    15:00 +13°C° 0.1 mm 5 m/S 750 mmHg 88%
    16:00 +13°C° 0 mm 5 m/S 749 mmHg 89%
    17:00 +12°C° 0 mm 5 m/S 749 mmHg 89%
    18:00 +12°C° 0 mm 5 m/S 749 mmHg 90%
    19:00 +12°C° 0.1 mm 5 m/S 749 mmHg 91%
    20:00 +12°C° 0.1 mm 5 m/S 749 mmHg 92%
    21:00 +12°C° 0.1 mm 5 m/S 749 mmHg 93%
    22:00 +12°C° 0.8 mm 5 m/S 749 mmHg 93%
    23:00 +11°C° 0.8 mm 6 m/S 748 mmHg 93%

    1 Februar, Samstag

    Zeit Temperatur Niederschläge Wind Luftdruck Luftfeuchtigkeit
    00:00 +11°C° 0.8 mm 6 m/S 748 mmHg 93%
    01:00 +11°C° 0.4 mm 6 m/S 748 mmHg 93%
    02:00 +11°C° 0.4 mm 6 m/S 748 mmHg 92%
    03:00 +11°C° 0.4 mm 6 m/S 748 mmHg 92%
    04:00 +11°C° 0.1 mm 6 m/S 748 mmHg 92%
    05:00 +12°C° 0.1 mm 5 m/S 748 mmHg 91%
    06:00 +12°C° 0.1 mm 5 m/S 748 mmHg 91%
    07:00 +12°C° 0 mm 5 m/S 749 mmHg 89%
    08:00 +10°C° 0 mm 6 m/S 749 mmHg 86%
    09:00 +10°C° 0 mm 6 m/S 750 mmHg 84%
    10:00 +10°C° 0 mm 6 m/S 751 mmHg 81%
    11:00 +11°C° 0 mm 6 m/S 751 mmHg 79%
    12:00 +11°C° 0 mm 6 m/S 751 mmHg 76%
    13:00 +13°C° 0 mm 6 m/S 752 mmHg 75%
    14:00 +13°C° 0 mm 6 m/S 752 mmHg 75%
    15:00 +13°C° 0 mm 6 m/S 753 mmHg 74%
    16:00 +12°C° 0 mm 5 m/S 753 mmHg 79%
    17:00 +11°C° 0 mm 4 m/S 753 mmHg 84%
    18:00 +10°C° 0 mm 3 m/S 754 mmHg 89%
    19:00 +10°C° 0 mm 3 m/S 754 mmHg 90%
    20:00 +9°C° 0 mm 3 m/S 754 mmHg 91%
    21:00 +9°C° 0 mm 3 m/S 755 mmHg 93%
    22:00 +9°C° 0 mm 3 m/S 755 mmHg 93%
    23:00 +8°C° 0 mm 4 m/S 754 mmHg 94%

    2 Februar, Sonntag

    Zeit Temperatur Niederschläge Wind Luftdruck Luftfeuchtigkeit
    00:00 +8°C° 0 mm 4 m/S 754 mmHg 95%
    01:00 +8°C° 0 mm 5 m/S 754 mmHg 95%
    02:00 +9°C° 0 mm 6 m/S 753 mmHg 95%
    03:00 +9°C° 0 mm 6 m/S 753 mmHg 95%
    04:00 +10°C° 0 mm 6 m/S 753 mmHg 94%
    05:00 +10°C° 0 mm 6 m/S 752 mmHg 93%
    06:00 +10°C° 0 mm 7 m/S 752 mmHg 92%
    07:00 +11°C° 0.3 mm 7 m/S 752 mmHg 90%
    08:00 +11°C° 0.3 mm 7 m/S 752 mmHg 88%
    09:00 +12°C° 0.3 mm 8 m/S 752 mmHg 86%
    10:00 +12°C° 0 mm 7 m/S 752 mmHg 84%
    11:00 +14°C° 0 mm 7 m/S 752 mmHg 81%
    12:00 +14°C° 0 mm 7 m/S 752 mmHg 79%
    13:00 +15°C° 0 mm 7 m/S 752 mmHg 77%
    14:00 +15°C° 0 mm 7 m/S 752 mmHg 75%
    15:00 +15°C° 0 mm 7 m/S 752 mmHg 74%
    16:00 +15°C° 0.1 mm 6 m/S 752 mmHg 76%
    17:00 +14°C° 0.1 mm 6 m/S 752 mmHg 78%
    18:00 +14°C° 0.1 mm 6 m/S 752 mmHg 80%
    19:00 +13°C° 0.3 mm 6 m/S 753 mmHg 82%
    20:00 +13°C° 0.3 mm 6 m/S 753 mmHg 84%
    21:00 +13°C° 0.3 mm 6 m/S 753 mmHg 86%
    22:00 +13°C° 0 mm 6 m/S 754 mmHg 87%
    23:00 +11°C° 0 mm 6 m/S 754 mmHg 88%
    Mehr zeigen